Weather History for San Antonio Stinson, TX

Change the Weather History Date:

Friday, September 5, 2014

  Actual Average Record
Temperature  
Mean Temperature 86 °F -  
Max Temperature 97 °F 89 °F 111 °F (2000)
Min Temperature 75 °F 70 °F 66 °F (2006)
Cooling Degree Days 20    
Growing Degree Days 36 (Base 50)    
Moisture  
Dew Point 73 °F    
Average Humidity 79    
Maximum Humidity 96    
Minimum Humidity 36    
Precipitation  
Precipitation 0.02 in - - ()
Sea Level Pressure  
Sea Level Pressure 29.99 in    
Wind  
Wind Speed 6 mph (ESE)    
Max Wind Speed 14 mph    
Max Gust Speed 17 mph    
Visibility 10 miles    
Events Rain    
Averages and records for this station are not official NWS values.
T = Trace of Precipitation, MM = Missing Value Source: NWS Daily Summary

Daily Weather History Graph

Daily Weather History Graph

Search for Another Location

Airport:

Trip Planner

Search our weather history database for the weather conditions in past years. The results will help you decide how hot, cold, wet, or windy it might be!

Date:

Astronomy

Sep. 05, 2014 Rise Set
Actual Time 7:13 AM CDT 7:51 PM CDT
Civil Twilight 6:49 AM CDT 8:15 PM CDT
Nautical Twilight 6:21 AM CDT 8:43 PM CDT
Astronomical Twilight 5:52 AM CDT 9:11 PM CDT
Moon 5:10 PM CDT (9/5) 3:21 AM CDT (9/5)
Length of Visible Light 13h 25m
Length of Day
12h 37m
Waxing Gibbous, 84% of the Moon is Illuminated
Sep 5
Waxing Gibbous
Sep 8
Full
Sep 15
Last Quarter
Sep 24
New
Oct 1
First Quarter

Hourly Weather History & Observations

Time (CDT) Temp. Heat Index Dew Point Humidity Pressure Visibility Wind Dir Wind Speed Gust Speed Precip Events Conditions
12:53 AM 77.0 °F - 73.9 °F 90% 29.99 in 10.0 mi East 5.8 mph - N/A   Partly Cloudy
1:10 AM 77.0 °F - 73.9 °F 90% 30.02 in 10.0 mi ESE 5.8 mph - N/A   Mostly Cloudy
1:18 AM 77.0 °F - 73.9 °F 90% 30.02 in 10.0 mi ESE 5.8 mph - N/A   Scattered Clouds
1:53 AM 77.0 °F - 73.9 °F 90% 29.98 in 10.0 mi ESE 4.6 mph - N/A   Scattered Clouds
2:00 AM 77.0 °F - 75.0 °F 94% 30.02 in 10.0 mi ESE 4.6 mph - N/A   Mostly Cloudy
2:10 AM 77.0 °F - 75.0 °F 94% 30.02 in 10.0 mi East 4.6 mph - N/A   Mostly Cloudy
2:53 AM 78.1 °F - 75.0 °F 90% 29.99 in 10.0 mi East 4.6 mph - N/A   Overcast
3:53 AM 78.1 °F - 75.9 °F 93% 29.98 in 10.0 mi ESE 8.1 mph - N/A   Overcast
4:53 AM 79.0 °F - 75.9 °F 90% 29.98 in 10.0 mi East 8.1 mph - N/A   Overcast
5:53 AM 78.1 °F - 75.9 °F 93% 29.99 in 10.0 mi East 6.9 mph - N/A   Overcast
6:06 AM 78.1 °F - 75.9 °F 93% 30.03 in 10.0 mi ESE 4.6 mph - N/A   Overcast
6:21 AM 78.1 °F - 75.9 °F 93% 30.03 in 10.0 mi East 4.6 mph - N/A   Mostly Cloudy
6:41 AM 77.0 °F - 75.9 °F 96% 30.03 in 10.0 mi East 5.8 mph - N/A   Mostly Cloudy
6:53 AM 77.0 °F - 75.9 °F 96% 30.00 in 10.0 mi East 5.8 mph - N/A   Overcast
7:53 AM 78.1 °F - 75.9 °F 93% 30.01 in 10.0 mi East 5.8 mph - N/A   Overcast
8:53 AM 79.0 °F - 75.9 °F 90% 30.01 in 10.0 mi ESE 5.8 mph - N/A   Overcast
9:27 AM 82.0 °F 89.4 °F 75.9 °F 82% 30.04 in 10.0 mi SE 9.2 mph - N/A   Mostly Cloudy
9:53 AM 82.0 °F 88.6 °F 75.0 °F 79% 30.02 in 10.0 mi SSE 9.2 mph - N/A   Mostly Cloudy
10:38 AM 84.0 °F 91.2 °F 73.9 °F 72% 30.06 in 10.0 mi South 9.2 mph - N/A   Scattered Clouds
10:53 AM 87.1 °F 94.5 °F 73.0 °F 63% 30.03 in 10.0 mi SE 10.4 mph - N/A   Scattered Clouds
11:53 AM 88.0 °F 94.7 °F 72.0 °F 59% 30.02 in 10.0 mi SE 9.2 mph 17.3 mph N/A   Partly Cloudy
12:53 PM 91.9 °F 98.4 °F 71.1 °F 50% 30.00 in 10.0 mi SE 12.7 mph - N/A   Mostly Cloudy
1:53 PM 91.0 °F 93.8 °F 66.0 °F 44% 29.98 in 10.0 mi SE 9.2 mph - N/A   Partly Cloudy
2:53 PM 93.9 °F 98.6 °F 68.0 °F 43% 29.96 in 10.0 mi SSE 9.2 mph - N/A   Clear
3:53 PM 96.1 °F 99.3 °F 66.0 °F 37% 29.90 in 10.0 mi East 11.5 mph - N/A   Clear
4:53 PM 96.1 °F 98.8 °F 64.9 °F 36% 29.89 in 10.0 mi SE 13.8 mph - N/A   Partly Cloudy
5:53 PM 78.1 °F - 68.0 °F 71% 29.95 in 8.0 mi South 10.4 mph - 0.02 in Rain Light Rain
6:53 PM 78.1 °F - 71.1 °F 79% 29.92 in 10.0 mi ESE 4.6 mph - 0.00 in   Clear
7:53 PM 78.1 °F - 71.1 °F 79% 29.92 in 10.0 mi ESE 4.6 mph - N/A   Clear
8:53 PM 77.0 °F - 70.0 °F 79% 29.95 in 10.0 mi Calm Calm - N/A   Clear
9:53 PM 77.0 °F - 72.0 °F 84% 29.98 in 10.0 mi Calm Calm - N/A   Clear
10:53 PM 75.9 °F - 72.0 °F 87% 30.01 in 10.0 mi West 4.6 mph - N/A   Partly Cloudy
11:53 PM 78.1 °F - 72.0 °F 81% 30.00 in 10.0 mi East 3.5 mph - N/A   Mostly Cloudy